Time,TemperatureF,DewpointF,PressureIn,WindDirection,WindDirectionDegrees,WindSpeedMPH,WindSpeedGustMPH,Humidity,HourlyPrecipIn,Conditions,Clouds,dailyrainin,SoftwareType,DateUTC
2013-01-21 13:27:00,59.8,43.1,30.07,NNW,340,0.0,0.0,54,0.00,,,0.00,WeatherTracker,2013-01-21 21:27:00,
2013-01-21 13:32:00,59.8,43.1,30.07,NNW,346,0.0,0.0,54,0.00,,,0.00,WeatherTracker,2013-01-21 21:32:00,
2013-01-21 13:37:00,59.7,42.5,30.07,NNW,347,0.0,0.0,53,0.00,,,0.00,WeatherTracker,2013-01-21 21:37:00,
2013-01-21 13:42:00,59.5,41.9,30.07,North,355,0.0,0.0,52,0.00,,,0.00,WeatherTracker,2013-01-21 21:42:00,
2013-01-21 13:47:00,59.5,41.9,30.06,North,360,0.0,0.0,52,0.00,,,0.00,WeatherTracker,2013-01-21 21:47:00,
2013-01-21 13:52:00,59.7,41.5,30.06,North,355,0.0,0.0,51,0.00,,,0.00,WeatherTracker,2013-01-21 21:52:00,
2013-01-21 13:57:00,59.9,42.2,30.06,NNW,336,0.0,0.0,52,0.00,,,0.00,WeatherTracker,2013-01-21 21:57:00,
2013-01-21 14:02:00,60.1,42.4,30.05,NNW,348,0.0,0.0,52,0.00,,,0.00,WeatherTracker,2013-01-21 22:02:00,
2013-01-21 14:07:00,60.3,42.6,30.05,North,350,0.0,0.0,52,0.00,,,0.00,WeatherTracker,2013-01-21 22:07:00,
2013-01-21 14:12:00,60.4,43.2,30.05,NW,315,0.0,0.0,53,0.00,,,0.00,WeatherTracker,2013-01-21 22:12:00,
2013-01-21 14:17:00,60.5,43.3,30.06,NNW,330,0.0,0.0,53,0.00,,,0.00,WeatherTracker,2013-01-21 22:17:00,
2013-01-21 14:22:00,60.3,43.6,30.06,NNW,334,0.0,0.0,54,0.00,,,0.00,WeatherTracker,2013-01-21 22:22:00,
2013-01-21 14:27:00,60.4,44.2,30.06,NW,323,0.0,0.0,55,0.00,,,0.00,WeatherTracker,2013-01-21 22:27:00,
2013-01-21 14:32:00,60.2,44.0,30.05,NNW,334,0.0,0.0,55,0.00,,,0.00,WeatherTracker,2013-01-21 22:32:00,
2013-01-21 14:37:00,60.4,44.6,30.05,NW,316,0.0,0.0,56,0.00,,,0.00,WeatherTracker,2013-01-21 22:37:00,
2013-01-21 14:42:00,60.4,44.6,30.05,NW,322,0.0,0.0,56,0.00,,,0.00,WeatherTracker,2013-01-21 22:42:00,
2013-01-21 14:47:00,60.3,45.0,30.05,NW,311,0.0,0.0,57,0.00,,,0.00,WeatherTracker,2013-01-21 22:47:00,
2013-01-21 14:53:00,60.2,44.9,30.05,NNW,328,0.0,0.0,57,0.00,,,0.00,WeatherTracker,2013-01-21 22:53:00,
2013-01-21 14:58:00,60.1,44.8,30.05,NNW,341,0.0,0.0,57,0.00,,,0.00,WeatherTracker,2013-01-21 22:58:00,
2013-01-21 15:03:00,60.1,44.8,30.05,NNW,340,0.0,0.0,57,0.00,,,0.00,WeatherTracker,2013-01-21 23:03:00,
2013-01-21 15:08:00,60.0,44.7,30.05,NNW,327,0.0,0.0,57,0.00,,,0.00,WeatherTracker,2013-01-21 23:08:00,
2013-01-21 15:13:00,60.2,44.9,30.05,NW,323,0.0,0.0,57,0.00,,,0.00,WeatherTracker,2013-01-21 23:13:00,
2013-01-21 15:18:00,60.0,44.7,30.05,NNW,329,0.0,0.0,57,0.00,,,0.00,WeatherTracker,2013-01-21 23:18:00,
2013-01-21 15:23:00,59.8,45.0,30.05,NNW,338,0.0,0.0,58,0.00,,,0.00,WeatherTracker,2013-01-21 23:23:00,
2013-01-21 15:28:00,59.8,45.0,30.05,NW,325,0.0,0.0,58,0.00,,,0.00,WeatherTracker,2013-01-21 23:28:00,
2013-01-21 15:33:00,59.6,45.3,30.04,NW,322,0.0,0.0,59,0.00,,,0.00,WeatherTracker,2013-01-21 23:33:00,
2013-01-21 15:38:00,59.5,44.7,30.04,NW,313,0.0,0.0,58,0.00,,,0.00,WeatherTracker,2013-01-21 23:38:00,
2013-01-21 15:43:00,59.7,44.9,30.04,NW,321,0.0,0.0,58,0.00,,,0.00,WeatherTracker,2013-01-21 23:43:00,
2013-01-21 15:48:00,59.6,44.8,30.04,NNW,329,0.0,0.0,58,0.00,,,0.00,WeatherTracker,2013-01-21 23:48:00,
2013-01-21 15:53:00,59.6,44.8,30.04,NNW,327,0.0,0.0,58,0.00,,,0.00,WeatherTracker,2013-01-21 23:53:00,
2013-01-21 15:58:00,59.6,44.3,30.04,NNW,340,0.0,0.0,57,0.00,,,0.00,WeatherTracker,2013-01-21 23:58:00,
2013-01-21 16:03:00,59.5,44.7,30.04,NW,311,0.0,0.0,58,0.00,,,0.00,WeatherTracker,2013-01-22 00:03:00,
2013-01-21 16:08:00,59.6,44.3,30.04,NW,315,0.0,0.0,57,0.00,,,0.00,WeatherTracker,2013-01-22 00:08:00,
2013-01-21 16:13:00,59.2,44.4,30.04,NW,322,0.0,0.0,58,0.00,,,0.00,WeatherTracker,2013-01-22 00:13:00,
2013-01-21 16:18:00,58.8,44.1,30.04,NNW,327,0.0,0.0,58,0.00,,,0.00,WeatherTracker,2013-01-22 00:18:00,
2013-01-21 16:23:00,58.5,43.8,30.04,WNW,301,0.0,0.0,58,0.00,,,0.00,WeatherTracker,2013-01-22 00:23:00,
2013-01-21 16:29:00,58.5,43.3,30.02,NW,323,0.0,0.0,57,0.00,,,0.00,WeatherTracker,2013-01-22 00:29:00,
2013-01-21 16:34:00,58.3,43.6,30.02,NW,311,0.0,0.0,58,0.00,,,0.00,WeatherTracker,2013-01-22 00:34:00,
2013-01-21 16:39:00,58.2,43.5,30.02,NW,320,0.0,0.0,58,0.00,,,0.00,WeatherTracker,2013-01-22 00:39:00,
2013-01-21 16:44:00,58.0,42.9,30.02,NW,315,0.0,0.0,57,0.00,,,0.00,WeatherTracker,2013-01-22 00:44:00,
2013-01-21 16:49:00,57.8,42.7,30.02,NW,320,0.0,0.0,57,0.00,,,0.00,WeatherTracker,2013-01-22 00:49:00,
2013-01-21 16:54:00,57.8,42.7,30.02,NNW,329,0.0,0.0,57,0.00,,,0.00,WeatherTracker,2013-01-22 00:54:00,
2013-01-21 16:59:00,57.8,41.7,30.03,NW,319,0.0,0.0,55,0.00,,,0.00,WeatherTracker,2013-01-22 00:59:00,
2013-01-21 17:04:00,57.8,41.7,30.03,NW,315,0.0,0.0,55,0.00,,,0.00,WeatherTracker,2013-01-22 01:04:00,
2013-01-21 17:09:00,57.8,41.3,30.03,NW,322,0.0,0.0,54,0.00,,,0.00,WeatherTracker,2013-01-22 01:09:00,
2013-01-21 17:14:00,57.8,40.8,30.03,NNW,342,0.0,0.0,53,0.00,,,0.00,WeatherTracker,2013-01-22 01:14:00,
2013-01-21 17:19:00,57.7,40.7,30.03,NW,324,0.0,0.0,53,0.00,,,0.00,WeatherTracker,2013-01-22 01:19:00,
2013-01-21 17:24:00,57.5,40.5,30.03,NW,317,0.0,0.0,53,0.00,,,0.00,WeatherTracker,2013-01-22 01:24:00,
2013-01-21 17:29:00,57.2,40.2,30.03,NW,314,0.0,0.0,53,0.00,,,0.00,WeatherTracker,2013-01-22 01:29:00,
2013-01-21 17:34:00,57.2,40.2,30.03,NW,321,0.0,0.0,53,0.00,,,0.00,WeatherTracker,2013-01-22 01:34:00,
2013-01-21 17:39:00,57.1,39.6,30.03,NW,304,0.0,0.0,52,0.00,,,0.00,WeatherTracker,2013-01-22 01:39:00,
2013-01-21 17:44:00,57.1,39.6,30.03,NW,318,0.0,0.0,52,0.00,,,0.00,WeatherTracker,2013-01-22 01:44:00,
2013-01-21 17:49:00,57.0,39.5,30.03,NW,319,0.0,0.0,52,0.00,,,0.00,WeatherTracker,2013-01-22 01:49:00,
2013-01-21 17:54:00,56.8,39.9,30.03,NNW,338,0.0,0.0,53,0.00,,,0.00,WeatherTracker,2013-01-22 01:54:00,
2013-01-21 17:59:00,56.6,39.7,30.03,NNW,334,0.0,0.0,53,0.00,,,0.00,WeatherTracker,2013-01-22 01:59:00,
2013-01-21 18:04:00,56.4,39.5,30.03,NW,319,0.0,0.0,53,0.00,,,0.00,WeatherTracker,2013-01-22 02:04:00,
2013-01-21 18:09:00,56.3,39.4,30.03,WNW,297,0.0,0.0,53,0.00,,,0.00,WeatherTracker,2013-01-22 02:09:00,
2013-01-21 18:15:00,56.1,39.7,30.03,NW,314,0.0,0.0,54,0.00,,,0.00,WeatherTracker,2013-01-22 02:15:00,
2013-01-21 18:20:00,56.2,39.8,30.03,NW,307,0.0,0.0,54,0.00,,,0.00,WeatherTracker,2013-01-22 02:20:00,
2013-01-21 18:25:00,56.1,39.7,30.03,NW,309,0.0,0.0,54,0.00,,,0.00,WeatherTracker,2013-01-22 02:25:00,
2013-01-21 18:30:00,55.9,40.0,30.04,NNW,337,0.0,0.0,55,0.00,,,0.00,WeatherTracker,2013-01-22 02:30:00,
2013-01-21 18:35:00,55.9,40.0,30.04,NW,309,0.0,0.0,55,0.00,,,0.00,WeatherTracker,2013-01-22 02:35:00,
2013-01-21 18:40:00,55.9,40.0,30.04,NNW,329,0.0,0.0,55,0.00,,,0.00,WeatherTracker,2013-01-22 02:40:00,
2013-01-21 18:45:00,55.7,40.2,30.04,NW,311,0.0,0.0,56,0.00,,,0.00,WeatherTracker,2013-01-22 02:45:00,
2013-01-21 18:50:00,55.6,40.2,30.04,NNW,334,0.0,0.0,56,0.00,,,0.00,WeatherTracker,2013-01-22 02:50:00,
2013-01-21 18:55:00,55.4,40.9,30.04,NW,316,0.0,0.0,58,0.00,,,0.00,WeatherTracker,2013-01-22 02:55:00,
2013-01-21 19:00:00,54.9,40.8,30.04,NW,316,0.0,0.0,59,0.00,,,0.00,WeatherTracker,2013-01-22 03:00:00,
2013-01-21 19:05:00,54.6,41.0,30.04,NNW,344,0.0,0.0,60,0.00,,,0.00,WeatherTracker,2013-01-22 03:05:00,
2013-01-21 19:10:00,54.4,40.4,30.04,NW,321,0.0,0.0,59,0.00,,,0.00,WeatherTracker,2013-01-22 03:10:00,
2013-01-21 19:15:00,54.3,40.3,30.05,NNW,331,0.0,0.0,59,0.00,,,0.00,WeatherTracker,2013-01-22 03:15:00,
2013-01-21 19:20:00,54.2,40.2,30.05,NW,319,0.0,0.0,59,0.00,,,0.00,WeatherTracker,2013-01-22 03:20:00,
2013-01-21 19:25:00,54.4,39.9,30.05,NW,317,0.0,0.0,58,0.00,,,0.00,WeatherTracker,2013-01-22 03:25:00,
2013-01-21 19:30:00,54.4,39.5,30.04,WNW,303,0.0,0.0,57,0.00,,,0.00,WeatherTracker,2013-01-22 03:30:00,
2013-01-21 19:35:00,54.5,39.6,30.04,NW,315,0.0,0.0,57,0.00,,,0.00,WeatherTracker,2013-01-22 03:35:00,
2013-01-21 19:40:00,54.6,39.7,30.04,WNW,300,0.0,0.0,57,0.00,,,0.00,WeatherTracker,2013-01-22 03:40:00,
2013-01-21 19:45:00,54.6,39.7,30.04,NW,319,0.0,0.0,57,0.00,,,0.00,WeatherTracker,2013-01-22 03:45:00,
2013-01-21 19:50:00,54.5,39.6,30.04,NW,311,0.0,0.0,57,0.00,,,0.00,WeatherTracker,2013-01-22 03:50:00,
2013-01-21 19:55:00,54.2,39.7,30.04,NW,313,0.0,0.0,58,0.00,,,0.00,WeatherTracker,2013-01-22 03:55:00,
2013-01-21 20:00:00,54.1,39.7,30.05,NW,306,0.0,0.0,58,0.00,,,0.00,WeatherTracker,2013-01-22 04:00:00,
2013-01-21 20:05:00,54.2,39.3,30.05,NW,313,0.0,0.0,57,0.00,,,0.00,WeatherTracker,2013-01-22 04:05:00,
2013-01-21 20:11:00,54.2,39.3,30.05,NW,326,0.0,0.0,57,0.00,,,0.00,WeatherTracker,2013-01-22 04:11:00,
2013-01-21 20:16:00,54.4,39.5,30.04,NW,309,0.0,0.0,57,0.00,,,0.00,WeatherTracker,2013-01-22 04:16:00,
2013-01-21 20:21:00,54.4,39.5,30.04,NW,319,0.0,0.0,57,0.00,,,0.00,WeatherTracker,2013-01-22 04:21:00,
2013-01-21 20:26:00,54.2,39.3,30.04,WNW,302,0.0,0.0,57,0.00,,,0.00,WeatherTracker,2013-01-22 04:26:00,
2013-01-21 20:31:00,54.1,39.7,30.05,WNW,288,0.0,0.0,58,0.00,,,0.00,WeatherTracker,2013-01-22 04:31:00,
2013-01-21 20:36:00,54.1,39.7,30.05,NW,304,0.0,0.0,58,0.00,,,0.00,WeatherTracker,2013-01-22 04:36:00,
2013-01-21 20:41:00,54.1,39.7,30.05,NW,311,0.0,0.0,58,0.00,,,0.00,WeatherTracker,2013-01-22 04:41:00,
2013-01-21 20:46:00,54.2,40.2,30.05,WNW,296,0.0,0.0,59,0.00,,,0.00,WeatherTracker,2013-01-22 04:46:00,
2013-01-21 20:51:00,54.2,40.2,30.05,WNW,290,0.0,0.0,59,0.00,,,0.00,WeatherTracker,2013-01-22 04:51:00,
2013-01-21 20:56:00,54.3,39.8,30.05,NW,322,0.0,0.0,58,0.00,,,0.00,WeatherTracker,2013-01-22 04:56:00,
2013-01-21 21:00:00,54.4,39.9,30.05,WNW,290,0.0,0.0,58,0.00,,,0.00,WeatherTracker,2013-01-22 05:00:00,
2013-01-21 21:05:00,54.5,39.6,30.05,NW,314,0.0,0.0,57,0.00,,,0.00,WeatherTracker,2013-01-22 05:05:00,
2013-01-21 21:11:00,54.5,39.6,30.05,NW,317,0.0,0.0,57,0.00,,,0.00,WeatherTracker,2013-01-22 05:11:00,
2013-01-21 21:16:00,54.6,39.7,30.06,WNW,292,0.0,0.0,57,0.00,,,0.00,WeatherTracker,2013-01-22 05:16:00,
2013-01-21 21:21:00,54.6,39.7,30.06,WNW,286,0.0,0.0,57,0.00,,,0.00,WeatherTracker,2013-01-22 05:21:00,
2013-01-21 21:26:00,54.7,39.8,30.06,WNW,293,0.0,0.0,57,0.00,,,0.00,WeatherTracker,2013-01-22 05:26:00,
2013-01-21 21:31:00,54.8,39.9,30.07,NNW,329,0.0,0.0,57,0.00,,,0.00,WeatherTracker,2013-01-22 05:31:00,
2013-01-21 21:36:00,54.8,40.3,30.07,WNW,299,0.0,0.0,58,0.00,,,0.00,WeatherTracker,2013-01-22 05:36:00,
2013-01-21 21:41:00,54.7,40.2,30.07,WNW,301,0.0,0.0,58,0.00,,,0.00,WeatherTracker,2013-01-22 05:41:00,
2013-01-21 21:46:00,54.7,40.7,30.07,WNW,300,0.0,0.0,59,0.00,,,0.00,WeatherTracker,2013-01-22 05:46:00,
2013-01-21 21:51:00,54.6,40.6,30.07,NW,308,0.0,0.0,59,0.00,,,0.00,WeatherTracker,2013-01-22 05:51:00,
2013-01-21 21:56:00,54.4,40.8,30.07,NW,315,0.0,0.0,60,0.00,,,0.00,WeatherTracker,2013-01-22 05:56:00,
2013-01-21 22:01:00,54.3,40.7,30.07,NW,315,0.0,0.0,60,0.00,,,0.00,WeatherTracker,2013-01-22 06:01:00,
2013-01-21 22:06:00,54.2,41.0,30.07,NW,306,0.0,0.0,61,0.00,,,0.00,WeatherTracker,2013-01-22 06:06:00,
2013-01-21 22:11:00,54.2,41.0,30.07,WNW,303,0.0,0.0,61,0.00,,,0.00,WeatherTracker,2013-01-22 06:11:00,
2013-01-21 22:16:00,54.4,41.2,30.07,NW,306,0.0,0.0,61,0.00,,,0.00,WeatherTracker,2013-01-22 06:16:00,
2013-01-21 22:21:00,54.4,41.2,30.07,WNW,288,0.0,0.0,61,0.00,,,0.00,WeatherTracker,2013-01-22 06:21:00,
2013-01-21 22:26:00,54.3,41.1,30.07,NW,315,0.0,0.0,61,0.00,,,0.00,WeatherTracker,2013-01-22 06:26:00,
2013-01-21 22:31:00,54.2,41.0,30.07,NNW,330,0.0,0.0,61,0.00,,,0.00,WeatherTracker,2013-01-22 06:31:00,
2013-01-21 22:36:00,54.1,41.0,30.07,WNW,302,0.0,0.0,61,0.00,,,0.00,WeatherTracker,2013-01-22 06:36:00,
2013-01-21 22:41:00,54.0,40.9,30.07,NW,317,0.0,0.0,61,0.00,,,0.00,WeatherTracker,2013-01-22 06:41:00,
2013-01-21 22:46:00,53.7,41.0,30.07,WNW,296,0.0,0.0,62,0.00,,,0.00,WeatherTracker,2013-01-22 06:46:00,
2013-01-21 22:51:00,53.4,40.7,30.07,NW,320,0.0,0.0,62,0.00,,,0.00,WeatherTracker,2013-01-22 06:51:00,
2013-01-21 22:56:00,53.4,40.7,30.07,NW,315,0.0,0.0,62,0.00,,,0.00,WeatherTracker,2013-01-22 06:56:00,
2013-01-21 23:01:00,53.2,40.9,30.07,NW,310,0.0,0.0,63,0.00,,,0.00,WeatherTracker,2013-01-22 07:01:00,
2013-01-21 23:06:00,52.9,41.1,30.07,NW,321,0.0,0.0,64,0.00,,,0.00,WeatherTracker,2013-01-22 07:06:00,
2013-01-21 23:11:00,52.8,41.0,30.07,NW,307,0.0,0.0,64,0.00,,,0.00,WeatherTracker,2013-01-22 07:11:00,
2013-01-21 23:17:00,53.1,40.8,30.07,WNW,296,0.0,0.0,63,0.00,,,0.00,WeatherTracker,2013-01-22 07:17:00,
2013-01-21 23:22:00,53.2,40.9,30.07,NW,309,0.0,0.0,63,0.00,,,0.00,WeatherTracker,2013-01-22 07:22:00,
2013-01-21 23:27:00,53.0,40.7,30.07,NW,317,0.0,0.0,63,0.00,,,0.00,WeatherTracker,2013-01-22 07:27:00,
2013-01-21 23:32:00,53.0,41.2,30.06,NW,314,0.0,0.0,64,0.00,,,0.00,WeatherTracker,2013-01-22 07:32:00,
2013-01-21 23:37:00,52.7,40.9,30.06,NW,317,0.0,0.0,64,0.00,,,0.00,WeatherTracker,2013-01-22 07:37:00,
2013-01-21 23:42:00,52.6,40.8,30.06,NW,317,0.0,0.0,64,0.00,,,0.00,WeatherTracker,2013-01-22 07:42:00,
2013-01-21 23:47:00,52.5,41.1,30.06,North,349,0.0,0.0,65,0.00,,,0.00,WeatherTracker,2013-01-22 07:47:00,
2013-01-21 23:52:00,52.4,41.0,30.06,NW,308,0.0,0.0,65,0.00,,,0.00,WeatherTracker,2013-01-22 07:52:00,
2013-01-21 23:57:00,52.4,41.0,30.06,NW,320,0.0,0.0,65,0.00,,,0.00,WeatherTracker,2013-01-22 07:57:00,